sat.trackr.live / text

‹ back to catalog

STARLINK-3850

NORAD 52342 · 2022-045M

PAYLOAD ACTIVE UNKNOWN

§ Identity

Operator
Country
US
Launch date
2022-04-29
Launch site
AFETR
Launch vehicle
Mass (kg)
RCS (m²)

Purposes: comms

External: N2YO · Heavens-Above · Gunter

§ Orbital elements

Epoch: 2026-09-19T22:33:01.831392Z

Period
93.85 min
Inclination
53.1605°
Eccentricity
0.0001160
Mean motion
15.34389188 rev/d
Perigee alt
461.9 km
Apogee alt
463.5 km
Semi-major
6,840.9 km
B*
3.6688e-5
RAAN
38.1246°
Arg perigee
88.1559°
Mean anomaly
271.9577°
Rev number
24,522

§ Raw data

STARLINK-38501 52342U 22045M   26262.93960453  .00000863  00000+0  36688-4 0  99972 52342  53.1605  38.1246 0001160  88.1559 271.9577 15.34389188245229

JSON: /api/v1/satellites/52342 · /tle

For live sub-satellite position, see the globe view (requires WebGL).

§ Visibility from observer

Set your observer location to see the next 7 days of passes ≥ 10°. The values pass through the URL so the page stays shareable.

No JS? Fill the form by hand. The geolocation button needs JavaScript.